Weather observations for the past three days for
VIGIE/ST LUCIA
Metric (Imperial)
Date Time (ast) Wind (kph) Vis. (km) Weather Sky Cond. Temperature (ºC) Relative Humidity Wind Chill (°C) Heat Index (°C) Pressure Precipitation (cm)
Air Dwpt 6 hour altimeter (cm) sea level (mb) 1 hr 3 hr 6 hr
Max. Min.
07 20:00 E 13 0.00 A Few Clouds FEW024 27 23 79% 30 0 0.0
07 19:00 E 11 0.00 A Few Clouds FEW024 27 22 74% 29 0 0.0
07 18:00 E 13 0.00 Partly Cloudy SCT024 28 22 70% 31 0 0.0
07 17:00 NE 15 0.00 A Few Clouds FEW024 30 23 66% 34 0 0.0
07 16:00 NE 17 0.00 Partly Cloudy SCT024 30 22 62% 33 0 0.0
07 15:00 E 15 0.00 A Few Clouds FEW024 31 22 59% 35 0 0.0
07 14:00 NE 17 0.00 A Few Clouds FEW024 30 23 66% 34 0 0.0
07 13:00 NE 13 0.00 A Few Clouds FEW024 32 22 55% 36 0 0.0
07 12:00 E 17 0.00 A Few Clouds FEW024 32 22 55% 36 0 0.0
07 11:00 E 19 0.00 A Few Clouds FEW024 31 23 62% 35 0 0.0
07 10:00 E 20 0.00 A Few Clouds FEW024 30 22 62% 33 0 0.0
07 09:00 E 19 0.00 Partly Cloudy SCT018 SCT024 29 24 74% 34 0 0.0
07 08:00 NE 15 0.00 Mostly Cloudy BKN018 28 24 79% 32 0 0.0
06 20:00 E 9 0.00 A Few Clouds FEW022 27 23 79% 30 0 0.0
06 19:00 E 11 0.00 A Few Clouds FEW022 28 23 74% 31 0 0.0
06 18:00 E 15 0.00 A Few Clouds FEW024 28 23 74% 31 0 0.0
06 17:00 E 19 0.00 A Few Clouds FEW024 30 21 59% 33 0 0.0
06 16:00 E 20 0.00 A Few Clouds FEW024 31 23 62% 35 0 0.0
06 15:00 E 15 0.00 Mostly Cloudy BKN022 30 24 70% 35 0 0.0
06 14:00 E 20 0.00 Mostly Cloudy BKN022 30 24 70% 35 0 0.0
06 13:00 E 19 0.00 Light Showers Rain BKN022 30 25 75% 36 0 0.0
06 12:00 E 17 0.00 Mostly Cloudy BKN023 30 24 70% 35 0 0.0
06 11:00 E 13 0.00 Mostly Cloudy BKN026 31 24 66% 37 0 0.0
06 10:00 E 19 0.00 Mostly Cloudy BKN026 30 24 70% 35 0 0.0
06 09:00 E 15 0.00 Mostly Cloudy BKN023 29 24 74% 34 0 0.0
06 08:00 E 17 0.00 Mostly Cloudy BKN022 28 23 74% 31 0 0.0
05 20:00 Calm 0.00 Partly Cloudy SCT024 28 22 70% 31 0 0.0
05 18:00 E 15 0.00 Mostly Cloudy BKN023 28 21 66% 30 0 0.0
05 17:00 E 20 0.00 Mostly Cloudy BKN023 29 21 62% 31 0 0.0
05 16:00 E 19 0.00 Mostly Cloudy BKN023 30 22 62% 33 0 0.0
05 15:00 E 24 0.00 Mostly Cloudy BKN023 30 22 62% 33 0 0.0
05 14:00 SE 24 0.00 Partly Cloudy SCT020 31 22 59% 35 0 0.0
05 13:00 E 20 0.00 Mostly Cloudy BKN020 31 22 59% 35 0 0.0
05 12:00 E 20 0.00 Mostly Cloudy BKN020 30 23 66% 34 0 0.0
05 11:00 E 22 0.00 Mostly Cloudy BKN020 30 23 66% 34 0 0.0
05 10:00 E 20 0.00 Mostly Cloudy BKN020 30 23 66% 34 0 0.0
05 09:00 E 20 0.00 Mostly Cloudy BKN024 29 23 70% 33 0 0.0
05 08:00 E 13 0.00 Mostly Cloudy BKN022 29 24 74% 34 0 0.0
05 07:00 E 9 0.00 Partly Cloudy SCT026 28 23 74% 31 0 0.0
Date Time (ast) Wind (kph) Vis. (km) Weather Sky Cond. Air Dwpt Max. Min. Relative Humidity Wind Chill (°C) Heat Index (°C) altimeter (cm) sea level (mb) 1 hr 3 hr 6 hr
6 hour
Temperature (ºC) Pressure Precipitation (cm)